Location: Pallagorio
(39.3000°N, 16.9000°E)
Time: 21:19:17
(UTC+00:00)

Cosmos 1833 Rocket - Pass Details

Date: 24 January 2021
Orbit: 833 x 839 km, 71.0° (Epoch: 02 March)

Event Time Altitude Azimuth Distance (km) Brightness Sun altitude
Rises 16:44:06 0° 352° (N) 3,388 5.7 -8.1°
Reaches altitude 10° 16:47:41 10° 15° (NNE) 2,451 4.8 -8.8°
Maximum altitude 16:50:52 15° 50° (NE) 2,103 4.2 -9.4°
Enters shadow 16:53:10 12° 76° (ENE) 2,289 4.3 -9.8°
